| time (UTC) | temp C | wind direction | speed KPH | gust KPH | rain 1hr cm | rain 24hr cm | rain mn cm | humidity % | barometer mb |
| 20260831063516 | 18 | 213 | 4.8 | 14.5 | 0.00 | 0.18 | 0.18 | 82 | 1016.0 |
| 20260831062516 | 18 | 206 | 3.2 | 9.7 | 0.00 | 0.18 | 0.18 | 82 | 1016.0 |
| 20260831061517 | 18 | 218 | 3.2 | 19.3 | 0.00 | 0.18 | 0.18 | 82 | 1016.0 |
| 20260831060537 | 17 | 210 | 4.8 | 12.9 | 0.00 | 0.18 | 0.18 | 84 | 1016.0 |
| 20260831055517 | 17 | 203 | 3.2 | 12.9 | 0.00 | 0.18 | 0.18 | 84 | 1015.9 |
| 20260831054536 | 17 | 198 | 3.2 | 19.3 | 0.00 | 0.18 | 0.18 | 84 | 1015.9 |
| 20260831053516 | 17 | 214 | 4.8 | 14.5 | 0.00 | 0.18 | 0.18 | 84 | 1015.8 |
| 20260831052516 | 17 | 220 | 4.8 | 19.3 | 0.00 | 0.18 | 0.18 | 83 | 1015.7 |
| 20260831051517 | 17 | 223 | 6.4 | 17.7 | 0.00 | 0.18 | 0.18 | 84 | 1015.6 |
| 20260831050536 | 17 | 225 | 4.8 | 14.5 | 0.00 | 0.18 | 0.18 | 85 | 1015.5 |
| 20260831045517 | 17 | 221 | 6.4 | 16.1 | 0.00 | 0.18 | 0.18 | 85 | 1015.4 |
| 20260831044516 | 17 | 223 | 8.0 | 19.3 | 0.00 | 0.18 | 0.18 | 85 | 1015.3 |
| 20260831043516 | 17 | 218 | 8.0 | 29.0 | 0.00 | 0.18 | 0.18 | 85 | 1015.2 |
| 20260831042537 | 17 | 220 | 6.4 | 16.1 | 0.00 | 0.18 | 0.18 | 85 | 1015.2 |
| 20260831041557 | 17 | 218 | 4.8 | 14.5 | 0.00 | 0.18 | 0.18 | 85 | 1015.2 |
| 20260831040516 | 17 | 226 | 6.4 | 14.5 | 0.00 | 0.18 | 0.18 | 85 | 1015.2 |
| 20260831035537 | 17 | 221 | 6.4 | 22.5 | 0.00 | 0.18 | 0.18 | 85 | 1015.2 |
| 20260831034537 | 17 | 221 | 4.8 | 17.7 | 0.00 | 0.18 | 0.18 | 86 | 1015.2 |
| 20260831033517 | 17 | 222 | 6.4 | 20.9 | 0.00 | 0.18 | 0.18 | 87 | 1015.1 |
| 20260831032537 | 17 | 211 | 6.4 | 16.1 | 0.00 | 0.18 | 0.18 | 88 | 1015.2 |
| 20260831031517 | 17 | 221 | 3.2 | 14.5 | 0.00 | 0.18 | 0.18 | 89 | 1015.1 |
| 20260831030517 | 17 | 206 | 3.2 | 11.3 | 0.00 | 0.18 | 0.18 | 89 | 1015.0 |
| 20260831025537 | 17 | 202 | 4.8 | 9.7 | 0.00 | 0.18 | 0.18 | 89 | 1015.0 |
| 20260831024516 | 17 | 205 | 6.4 | 12.9 | 0.00 | 0.18 | 0.18 | 88 | 1014.9 |
| 20260831023537 | 17 | 226 | 4.8 | 11.3 | 0.00 | 0.18 | 0.18 | 89 | 1014.8 |
| 20260831022517 | 17 | 222 | 6.4 | 17.7 | 0.00 | 0.18 | 0.18 | 89 | 1014.7 |
| 20260831021517 | 17 | 212 | 4.8 | 14.5 | 0.00 | 0.18 | 0.18 | 90 | 1014.7 |
| 20260831020517 | 17 | 216 | 6.4 | 14.5 | 0.00 | 0.18 | 0.18 | 90 | 1014.7 |
| 20260831015537 | 17 | 231 | 4.8 | 17.7 | 0.00 | 0.18 | 0.18 | 90 | 1014.7 |
| 20260831014517 | 17 | 221 | 3.2 | 9.7 | 0.00 | 0.18 | 0.18 | 91 | 1014.6 |
| 20260831013517 | 17 | 218 | 8.0 | 19.3 | 0.00 | 0.18 | 0.18 | 91 | 1014.4 |
| 20260831012517 | 17 | 217 | 4.8 | 24.1 | 0.00 | 0.18 | 0.18 | 92 | 1014.5 |
| 20260831011516 | 17 | 199 | 1.6 | 4.8 | 0.03 | 0.18 | 0.18 | 92 | 1014.5 |
| 20260831010517 | 17 | 19 | 1.6 | 4.8 | 0.03 | 0.18 | 0.18 | 91 | 1014.5 |
| 20260831005537 | 17 | 197 | 1.6 | 8.0 | 0.03 | 0.18 | 0.18 | 91 | 1014.4 |
| 20260831004516 | 17 | 213 | 3.2 | 9.7 | 0.05 | 0.18 | 0.18 | 91 | 1014.4 |
| 20260831003515 | 17 | 221 | 4.8 | 16.1 | 0.05 | 0.18 | 0.18 | 91 | 1014.2 |
| 20260831002537 | 17 | 209 | 3.2 | 11.3 | 0.05 | 0.18 | 0.18 | 90 | 1014.4 |
| 20260831001517 | 17 | 227 | 3.2 | 12.9 | 0.15 | 0.15 | 0.15 | 90 | 1014.4 |
| 20260831000537 | 17 | 229 | 3.2 | 6.4 | 0.15 | 0.15 | 0.15 | 90 | 1014.2 |
| 20260830235537 | 17 | 244 | 1.6 | 11.3 | 0.15 | 0.15 | 0.15 | 89 | 1014.3 |
| 20260830234516 | 18 | 232 | 4.8 | 9.7 | 0.15 | 0.15 | 0.15 | 87 | 1014.3 |
| 20260830233515 | 18 | 245 | 1.6 | 4.8 | 0.15 | 0.15 | 0.15 | 85 | 1014.1 |
| 20260830232517 | 18 | 279 | 0.0 | 4.8 | 0.13 | 0.13 | 0.13 | 83 | 1014.3 |
| 20260830231517 | 19 | 225 | 3.2 | 17.7 | 0.03 | 0.03 | 0.03 | 80 | 1014.1 |
| 20260830230537 | 19 | 239 | 6.4 | 12.9 | 0.00 | 0.00 | 0.00 | 76 | 1013.7 |
| 20260830225537 | 19 | 229 | 6.4 | 16.1 | 0.00 | 0.00 | 0.00 | 76 | 1013.3 |
| 20260830224517 | 19 | 224 | 4.8 | 8.0 | 0.00 | 0.00 | 0.00 | 76 | 1013.2 |
| 20260830223537 | 19 | 227 | 4.8 | 9.7 | 0.00 | 0.00 | 0.00 | 76 | 1013.4 |
| 20260830222517 | 19 | 220 | 4.8 | 8.0 | 0.00 | 0.00 | 0.00 | 76 | 1013.5 |
| 20260830221516 | 19 | 229 | 4.8 | 9.7 | 0.00 | 0.00 | 0.00 | 77 | 1013.6 |
| 20260830220517 | 18 | 222 | 4.8 | 8.0 | 0.00 | 0.00 | 0.00 | 77 | 1013.6 |
| 20260830215517 | 18 | 228 | 3.2 | 6.4 | 0.00 | 0.00 | 0.00 | 77 | 1013.6 |
| 20260830214517 | 18 | 226 | 3.2 | 6.4 | 0.00 | 0.00 | 0.00 | 78 | 1013.6 |
| 20260830213517 | 18 | 232 | 3.2 | 4.8 | 0.00 | 0.00 | 0.00 | 78 | 1013.7 |
| 20260830212517 | 18 | 227 | 3.2 | 8.0 | 0.00 | 0.00 | 0.00 | 78 | 1013.7 |
| 20260830211517 | 18 | 226 | 3.2 | 6.4 | 0.00 | 0.00 | 0.00 | 78 | 1013.7 |
| 20260830210517 | 18 | 215 | 3.2 | 6.4 | 0.00 | 0.00 | 0.00 | 78 | 1013.9 |
| 20260830205517 | 18 | 173 | 1.6 | 4.8 | 0.00 | 0.00 | 0.00 | 78 | 1013.8 |
| 20260830204517 | 18 | 228 | 3.2 | 6.4 | 0.00 | 0.00 | 0.00 | 77 | 1013.7 |
| 20260830203537 | 19 | 225 | 3.2 | 6.4 | 0.00 | 0.00 | 0.00 | 76 | 1013.8 |
| 20260830202517 | 19 | 226 | 3.2 | 9.7 | 0.00 | 0.00 | 0.00 | 76 | 1013.9 |
| 20260830201517 | 19 | 227 | 4.8 | 8.0 | 0.00 | 0.00 | 0.00 | 75 | 1013.9 |
| 20260830200517 | 20 | 230 | 4.8 | 9.7 | 0.00 | 0.00 | 0.00 | 75 | 1013.9 |
| 20260830195537 | 20 | 227 | 6.4 | 11.3 | 0.00 | 0.00 | 0.00 | 74 | 1014.0 |
| 20260830194517 | 20 | 210 | 3.2 | 6.4 | 0.00 | 0.00 | 0.00 | 74 | 1014.1 |
| 20260830193517 | 20 | 218 | 4.8 | 8.0 | 0.00 | 0.00 | 0.00 | 73 | 1014.1 |
| 20260830192517 | 20 | 220 | 3.2 | 6.4 | 0.00 | 0.00 | 0.00 | 73 | 1014.1 |
| 20260830191517 | 20 | 222 | 3.2 | 6.4 | 0.00 | 0.00 | 0.00 | 72 | 1014.1 |
| 20260830190537 | 21 | 229 | 3.2 | 6.4 | 0.00 | 0.00 | 0.00 | 71 | 1014.0 |
| 20260830185516 | 21 | 228 | 1.6 | 6.4 | 0.00 | 0.00 | 0.00 | 70 | 1013.9 |
| 20260830184517 | 21 | 230 | 3.2 | 6.4 | 0.00 | 0.00 | 0.00 | 70 | 1013.9 |
| 20260830183517 | 21 | 185 | 1.6 | 1.6 | 0.00 | 0.00 | 0.00 | 68 | 1013.9 |
| 20260830182557 | 22 | 0.0 | 1.6 | 0.00 | 0.00 | 0.00 | 67 | 1013.8 | |
| 20260830181517 | 22 | 202 | 0.0 | 3.2 | 0.00 | 0.00 | 0.00 | 65 | 1013.8 |
| 20260830180517 | 22 | 197 | 0.0 | 3.2 | 0.00 | 0.00 | 0.00 | 64 | 1013.9 |
| 20260830175517 | 23 | 197 | 0.0 | 1.6 | 0.00 | 0.00 | 0.00 | 64 | 1013.9 |
| 20260830174517 | 23 | 197 | 0.0 | 3.2 | 0.00 | 0.00 | 0.00 | 62 | 1013.9 |
| 20260830173517 | 23 | 197 | 0.0 | 1.6 | 0.00 | 0.00 | 0.00 | 61 | 1013.9 |
| 20260830172537 | 24 | 197 | 0.0 | 1.6 | 0.00 | 0.00 | 0.00 | 59 | 1013.9 |
| 20260830171517 | 24 | 222 | 1.6 | 6.4 | 0.00 | 0.00 | 0.00 | 58 | 1013.8 |
| 20260830170517 | 24 | 188 | 1.6 | 6.4 | 0.00 | 0.00 | 0.00 | 57 | 1013.9 |
| 20260830165517 | 24 | 229 | 1.6 | 6.4 | 0.00 | 0.00 | 0.00 | 57 | 1014.0 |
| 20260830164517 | 25 | 230 | 3.2 | 6.4 | 0.00 | 0.00 | 0.00 | 56 | 1013.9 |
| 20260830163517 | 25 | 233 | 3.2 | 9.7 | 0.00 | 0.00 | 0.00 | 54 | 1014.1 |
| 20260830162517 | 25 | 215 | 4.8 | 11.3 | 0.00 | 0.00 | 0.00 | 52 | 1014.1 |
| 20260830161517 | 25 | 210 | 4.8 | 12.9 | 0.00 | 0.00 | 0.00 | 53 | 1014.1 |
| 20260830160517 | 25 | 227 | 3.2 | 12.9 | 0.00 | 0.00 | 0.00 | 53 | 1014.0 |
| 20260830155516 | 25 | 234 | 4.8 | 17.7 | 0.00 | 0.00 | 0.00 | 52 | 1014.0 |
| 20260830154517 | 26 | 224 | 4.8 | 20.9 | 0.00 | 0.00 | 0.00 | 52 | 1014.0 |
| 20260830153517 | 26 | 221 | 3.2 | 14.5 | 0.00 | 0.00 | 0.00 | 52 | 1014.1 |
| 20260830152517 | 26 | 225 | 6.4 | 14.5 | 0.00 | 0.00 | 0.00 | 52 | 1014.1 |
| 20260830151537 | 26 | 222 | 6.4 | 16.1 | 0.00 | 0.00 | 0.00 | 51 | 1014.2 |
| 20260830150517 | 26 | 185 | 4.8 | 12.9 | 0.00 | 0.00 | 0.00 | 51 | 1014.3 |
| 20260830145516 | 26 | 200 | 4.8 | 19.3 | 0.00 | 0.00 | 0.00 | 52 | 1014.3 |
| 20260830144517 | 25 | 211 | 6.4 | 19.3 | 0.00 | 0.00 | 0.00 | 53 | 1014.4 |
| 20260830143517 | 25 | 216 | 8.0 | 16.1 | 0.00 | 0.00 | 0.00 | 53 | 1014.4 |
| 20260830142517 | 26 | 225 | 6.4 | 16.1 | 0.00 | 0.00 | 0.00 | 53 | 1014.5 |
| 20260830141516 | 25 | 201 | 4.8 | 12.9 | 0.00 | 0.00 | 0.00 | 55 | 1014.5 |
| 20260830140537 | 25 | 223 | 6.4 | 16.1 | 0.00 | 0.00 | 0.00 | 54 | 1014.6 |
| 20260830135517 | 26 | 218 | 6.4 | 16.1 | 0.00 | 0.00 | 0.00 | 53 | 1014.7 |
| 20260830134517 | 26 | 212 | 6.4 | 14.5 | 0.00 | 0.00 | 0.00 | 54 | 1014.8 |
| 20260830133517 | 25 | 171 | 6.4 | 16.1 | 0.00 | 0.00 | 0.00 | 58 | 1014.8 |
| 20260830132517 | 25 | 185 | 6.4 | 16.1 | 0.00 | 0.00 | 0.00 | 58 | 1014.9 |
| 20260830131516 | 24 | 172 | 6.4 | 16.1 | 0.00 | 0.00 | 0.00 | 62 | 1015.1 |
| 20260830130517 | 24 | 192 | 4.8 | 14.5 | 0.00 | 0.00 | 0.00 | 61 | 1015.2 |
| 20260830125517 | 24 | 226 | 3.2 | 9.7 | 0.00 | 0.00 | 0.00 | 59 | 1015.2 |
| 20260830124517 | 24 | 219 | 4.8 | 11.3 | 0.00 | 0.00 | 0.00 | 57 | 1015.2 |
| 20260830123517 | 24 | 222 | 6.4 | 20.9 | 0.00 | 0.00 | 0.00 | 56 | 1015.2 |
| 20260830122517 | 24 | 221 | 6.4 | 17.7 | 0.00 | 0.00 | 0.00 | 56 | 1015.3 |
| 20260830121517 | 24 | 215 | 4.8 | 12.9 | 0.00 | 0.00 | 0.00 | 57 | 1015.3 |
| 20260830120517 | 24 | 204 | 6.4 | 19.3 | 0.00 | 0.00 | 0.00 | 57 | 1015.3 |
| 20260830115517 | 24 | 224 | 6.4 | 17.7 | 0.00 | 0.00 | 0.00 | 57 | 1015.4 |
| 20260830114537 | 24 | 216 | 4.8 | 19.3 | 0.00 | 0.00 | 0.00 | 56 | 1015.4 |
| 20260830113517 | 24 | 221 | 9.7 | 19.3 | 0.00 | 0.00 | 0.00 | 55 | 1015.5 |
| 20260830112516 | 24 | 225 | 6.4 | 19.3 | 0.00 | 0.00 | 0.00 | 55 | 1015.5 |
| 20260830111517 | 24 | 224 | 8.0 | 24.1 | 0.00 | 0.00 | 0.00 | 54 | 1015.5 |
| 20260830110517 | 24 | 223 | 8.0 | 19.3 | 0.00 | 0.00 | 0.00 | 55 | 1015.6 |
| 20260830105516 | 23 | 201 | 6.4 | 16.1 | 0.00 | 0.00 | 0.00 | 59 | 1015.7 |
| 20260830104517 | 23 | 225 | 9.7 | 29.0 | 0.00 | 0.00 | 0.00 | 59 | 1015.8 |
| 20260830103517 | 22 | 223 | 8.0 | 25.7 | 0.00 | 0.00 | 0.00 | 60 | 1015.9 |
| 20260830102517 | 22 | 228 | 9.7 | 27.4 | 0.00 | 0.00 | 0.00 | 61 | 1015.9 |
| 20260830101517 | 22 | 209 | 6.4 | 22.5 | 0.00 | 0.00 | 0.00 | 61 | 1015.9 |
| 20260830100537 | 23 | 217 | 6.4 | 20.9 | 0.00 | 0.00 | 0.00 | 61 | 1015.9 |
| 20260830095517 | 22 | 221 | 6.4 | 17.7 | 0.00 | 0.00 | 0.00 | 62 | 1015.9 |
| 20260830094537 | 22 | 220 | 6.4 | 16.1 | 0.00 | 0.00 | 0.00 | 62 | 1016.1 |
| 20260830093517 | 22 | 196 | 8.0 | 20.9 | 0.00 | 0.00 | 0.00 | 62 | 1016.1 |
| 20260830092517 | 22 | 220 | 8.0 | 19.3 | 0.00 | 0.00 | 0.00 | 61 | 1016.0 |
| 20260830091517 | 22 | 211 | 8.0 | 19.3 | 0.00 | 0.00 | 0.00 | 62 | 1016.0 |
| 20260830090517 | 22 | 229 | 8.0 | 20.9 | 0.00 | 0.00 | 0.00 | 63 | 1016.0 |
| 20260830085517 | 22 | 222 | 8.0 | 20.9 | 0.00 | 0.00 | 0.00 | 64 | 1016.0 |
| 20260830084517 | 21 | 210 | 6.4 | 17.7 | 0.00 | 0.00 | 0.00 | 66 | 1016.0 |
| 20260830083517 | 21 | 225 | 8.0 | 24.1 | 0.00 | 0.00 | 0.00 | 66 | 1016.0 |
| 20260830082517 | 21 | 223 | 8.0 | 19.3 | 0.00 | 0.00 | 0.00 | 68 | 1015.9 |
| 20260830081526 | 21 | 219 | 6.4 | 16.1 | 0.00 | 0.00 | 0.00 | 68 | 1015.9 |
| 20260830080517 | 20 | 225 | 8.0 | 17.7 | 0.00 | 0.00 | 0.00 | 70 | 1015.9 |
| 20260830075537 | 20 | 220 | 8.0 | 17.7 | 0.00 | 0.00 | 0.00 | 70 | 1015.9 |
| 20260830074517 | 20 | 222 | 4.8 | 20.9 | 0.00 | 0.00 | 0.00 | 70 | 1015.9 |
| 20260830073521 | 21 | 211 | 8.0 | 19.3 | 0.00 | 0.00 | 0.00 | 69 | 1015.7 |
| 20260830072537 | 21 | 222 | 8.0 | 22.5 | 0.00 | 0.00 | 0.00 | 72 | 1015.6 |
| 20260830071517 | 21 | 205 | 9.7 | 19.3 | 0.00 | 0.00 | 0.00 | 72 | 1015.6 |
| 20260830070517 | 21 | 213 | 8.0 | 22.5 | 0.00 | 0.00 | 0.00 | 73 | 1015.5 |
| 20260830065517 | 20 | 216 | 4.8 | 20.9 | 0.00 | 0.00 | 0.00 | 75 | 1015.4 |
| 20260830064517 | 20 | 211 | 4.8 | 14.5 | 0.00 | 0.00 | 0.00 | 76 | 1015.4 |